Date String (YYYY-MM-DD hh:mm:ss) UTC,Instrument flags,absolute air pressure of the measurement (hPa),sample flow rate (lpm),inlet stack bypass flow (lpm),air temperature of the measurement (°C),ambient temperature measured by the external sensor (°C),aerosol sample conditioner tube jacket temperature (°C),OPC LED temperature (°C),internal box temperature (°C),relative humidity of the measurement (%),span deviation,mass concentration of particles derived from Lorenz-Mie calculation of OPC scattering (μg/m³),mass concentration of particles derived from Lorenz-Mie calculation of OPC scattering (μg/m³),mass concentration of particles derived from Lorenz-Mie calculation of OPC scattering (μg/m³)
DateTimeUTC,F1_M11,P_M11,Q1_M11,Q2_M11,T1_M11,T2_M11,T3_M11,T4_M11,T5_M11,U1_M11,ZSPAN_M11,X0_M11,X2_M11,X1_M11
2024-03-04 16:00:00,SystemResetWarning,0823.6,5.01,000.00,018.6,018.1,000.0,026.9,020.2,14.0,0000.0,0004.57,0000.97,0000.55
2024-03-04 16:01:00,SystemResetWarning,0823.7,5.00,000.00,018.6,018.1,000.0,026.9,020.2,14.0,0000.0,0004.64,0001.00,0000.56
2024-03-04 16:02:00,SystemResetWarning,0823.7,4.99,000.00,018.6,018.1,000.0,026.9,020.3,14.0,0000.0,0005.61,0000.97,0000.56
2024-03-04 16:03:00,SystemResetWarning,0823.6,4.99,000.00,018.6,018.1,000.0,026.9,020.3,13.8,0000.0,0005.87,0000.95,0000.56
2024-03-04 16:04:00,SystemResetWarning,0823.6,5.00,000.00,018.6,018.1,000.0,026.9,020.3,13.7,0000.0,0005.25,0000.93,0000.56
2024-03-04 16:05:00,SystemResetWarning,0823.7,5.00,000.00,018.6,018.1,000.0,026.9,020.3,13.8,0000.0,0004.60,0000.96,0000.57
2024-03-04 16:06:00,SystemResetWarning,0823.7,5.01,000.00,018.6,018.1,000.0,026.9,020.3,13.8,0000.0,0003.86,0000.94,0000.57
2024-03-04 16:07:00,SystemResetWarning,0823.7,5.00,000.00,018.7,018.1,000.0,026.9,020.3,13.7,0000.0,0004.53,0000.94,0000.57
2024-03-04 16:08:00,SystemResetWarning,0823.6,5.00,000.00,018.7,018.1,000.0,026.9,020.3,13.6,0000.0,0005.62,0000.94,0000.57
2024-03-04 16:09:00,SystemResetWarning,0823.6,4.99,000.00,018.7,018.1,000.0,026.9,020.3,13.7,0000.0,0005.86,0000.95,0000.58
2024-03-04 16:10:00,SystemResetWarning,0823.6,4.99,000.00,018.7,018.2,000.0,026.9,020.3,13.8,0000.0,0006.79,0000.95,0000.58
2024-03-04 16:11:00,SystemResetWarning,0823.6,5.00,000.00,018.7,018.2,000.0,026.9,020.3,13.8,0000.0,0007.35,0000.93,0000.57
2024-03-04 16:12:00,SystemResetWarning,0823.6,5.00,000.00,018.7,018.2,000.0,026.9,020.3,13.7,0000.0,0007.32,0000.91,0000.57
2024-03-04 16:13:00,SystemResetWarning,0823.6,5.00,000.00,018.7,018.2,000.0,027.0,020.3,13.7,0000.0,0007.10,0000.93,0000.56
2024-03-04 16:14:00,SystemResetWarning,0823.7,5.00,000.00,018.7,018.2,000.0,027.0,020.3,13.7,0000.0,0006.23,0000.93,0000.55
2024-03-04 16:15:00,SystemResetWarning,0823.6,5.01,000.00,018.7,018.2,000.0,027.0,020.3,13.6,0000.0,0006.29,0000.94,0000.55
2024-03-04 16:16:00,SystemResetWarning,0823.7,5.01,000.00,018.7,018.2,000.0,027.0,020.3,13.6,0000.0,0006.80,0000.92,0000.54
2024-03-04 16:17:00,SystemResetWarning,0823.6,4.98,000.00,018.7,018.2,000.0,027.0,020.3,13.6,0000.0,0006.78,0000.92,0000.55
2024-03-04 16:18:00,SystemResetWarning,0823.6,4.99,000.00,018.7,018.2,000.0,027.0,020.3,13.6,0000.0,0006.98,0000.99,0000.56
2024-03-04 16:19:00,SystemResetWarning,0823.6,5.02,000.00,018.7,018.2,000.0,027.0,020.3,13.7,0000.0,0005.84,0001.03,0000.57
2024-03-04 16:20:00,SystemResetWarning,0823.6,5.01,000.00,018.8,018.2,000.0,027.0,020.4,13.4,0000.0,0005.22,0001.03,0000.56
2024-03-04 16:21:00,SystemResetWarning,0823.6,4.99,000.00,018.8,018.2,000.0,027.0,020.4,13.3,0000.0,0004.63,0001.01,0000.57
2024-03-04 16:22:00,SystemResetWarning,0823.5,4.99,000.00,018.8,018.3,000.0,027.0,020.4,13.3,0000.0,0002.91,0001.01,0000.57
2024-03-04 16:23:00,SystemResetWarning,0823.5,5.00,000.00,018.8,018.3,000.0,027.0,020.4,13.5,0000.0,0003.22,0001.07,0000.58
2024-03-04 16:24:00,SystemResetWarning,0823.6,5.00,000.00,018.8,018.3,000.0,027.0,020.4,13.6,0000.0,0004.52,0001.06,0000.58
2024-03-04 16:25:00,SystemResetWarning,0823.5,5.01,000.00,018.8,018.3,000.0,027.0,020.4,13.5,0000.0,0005.61,0001.10,0000.58
2024-03-04 16:26:00,SystemResetWarning,0823.5,5.00,000.00,018.8,018.3,000.0,027.0,020.4,13.3,0000.0,0005.67,0001.11,0000.59
2024-03-04 16:27:00,SystemResetWarning,0823.5,5.00,000.00,018.8,018.3,000.0,027.0,020.4,13.2,0000.0,0005.62,0001.14,0000.59
2024-03-04 16:28:00,SystemResetWarning,0823.5,5.00,000.00,018.8,018.3,000.0,027.1,020.4,13.2,0000.0,0005.64,0001.15,0000.58
2024-03-04 16:29:00,SystemResetWarning,0823.4,5.00,000.00,018.8,018.3,000.0,027.1,020.4,12.4,0000.0,0005.58,0001.10,0000.57
2024-03-04 16:30:00,SystemResetWarning,0823.4,5.00,000.00,018.8,018.3,000.0,027.1,020.4,12.4,0000.0,0005.40,0001.04,0000.56
2024-03-04 16:31:00,SystemResetWarning,0823.3,5.00,000.00,018.8,018.3,000.0,027.1,020.5,12.7,0000.0,0006.07,0001.03,0000.56
2024-03-04 16:32:00,SystemResetWarning,0823.3,5.00,000.00,018.8,018.3,000.0,027.1,020.5,12.8,0000.0,0007.61,0001.10,0000.56
2024-03-04 16:33:00,SystemResetWarning,0823.4,5.01,000.00,018.8,018.3,000.0,027.1,020.5,13.3,0000.0,0007.71,0001.14,0000.56
2024-03-04 16:34:00,SystemResetWarning,0823.4,5.00,000.00,018.8,018.3,000.0,027.1,020.5,13.1,0000.0,0007.64,0001.10,0000.55
2024-03-04 16:35:00,SystemResetWarning,0823.4,5.00,000.00,018.9,018.3,000.0,027.1,020.5,12.9,0000.0,0006.71,0001.07,0000.56
2024-03-04 16:36:00,SystemResetWarning,0823.4,5.01,000.00,018.9,018.3,000.0,027.1,020.5,12.9,0000.0,0005.35,0001.02,0000.56
2024-03-04 16:37:00,SystemResetWarning,0823.3,5.00,000.00,018.9,018.4,000.0,027.1,020.5,12.9,0000.0,0006.59,0000.99,0000.54
2024-03-04 16:38:00,SystemResetWarning,0823.3,4.99,000.00,018.9,018.4,000.0,027.1,020.5,13.0,0000.0,0007.13,0001.02,0000.54
2024-03-04 16:39:00,SystemResetWarning,0823.3,4.99,000.00,018.9,018.4,000.0,027.1,020.5,13.0,0000.0,0006.97,0001.00,0000.53
2024-03-04 16:40:00,SystemResetWarning,0823.3,5.00,000.00,018.9,018.4,000.0,027.1,020.5,13.1,0000.0,0006.90,0001.00,0000.53
2024-03-04 16:41:00,SystemResetWarning,0823.2,5.00,000.00,018.9,018.4,000.0,027.1,020.5,13.0,0000.0,0007.04,0001.01,0000.53
2024-03-04 16:42:00,SystemResetWarning,0823.2,5.00,000.00,018.9,018.4,000.0,027.2,020.5,12.9,0000.0,0006.54,0001.00,0000.52
2024-03-04 16:43:00,SystemResetWarning,0823.1,5.00,000.00,018.9,018.4,000.0,027.2,020.5,13.0,0000.0,0004.66,0000.96,0000.52
2024-03-04 16:44:00,SystemResetWarning,0823.1,5.01,000.00,018.9,018.4,000.0,027.2,020.6,12.8,0000.0,0004.39,0000.89,0000.50
2024-03-04 16:45:00,SystemResetWarning,0823.1,5.00,000.00,018.9,018.4,000.0,027.2,020.6,12.9,0000.0,0004.32,0000.86,0000.48
2024-03-04 16:46:00,SystemResetWarning,0823.1,5.01,000.00,018.9,018.4,000.0,027.2,020.6,12.9,0000.0,0004.63,0000.87,0000.46
2024-03-04 16:47:00,SystemResetWarning,0823.1,5.00,000.00,018.9,018.4,000.0,027.2,020.6,12.9,0000.0,0005.35,0000.87,0000.45
2024-03-04 16:48:00,SystemResetWarning,0823.1,4.99,000.00,018.9,018.4,000.0,027.2,020.6,12.8,0000.0,0004.22,0000.88,0000.43
2024-03-04 16:49:00,SystemResetWarning,0823.1,5.01,000.00,018.9,018.4,000.0,027.2,020.7,12.8,0000.0,0003.12,0000.82,0000.44
2024-03-04 16:50:00,SystemResetWarning,0823.3,5.01,000.00,018.9,018.4,000.0,027.2,020.6,13.0,0000.0,0003.23,0000.84,0000.44
2024-03-04 16:51:00,SystemResetWarning,0823.2,5.00,000.00,018.9,018.4,000.0,027.2,020.6,13.2,0000.0,0004.49,0000.85,0000.43
2024-03-04 16:52:00,SystemResetWarning,0823.2,5.00,000.00,019.0,018.4,000.0,027.3,020.6,13.4,0000.0,0005.20,0000.81,0000.42
2024-03-04 16:53:00,SystemResetWarning,0823.2,4.99,000.00,019.0,018.4,000.0,027.3,020.6,13.5,0000.0,0005.33,0000.79,0000.42
2024-03-04 16:54:00,SystemResetWarning,0823.2,5.00,000.00,019.0,018.4,000.0,027.3,020.6,13.2,0000.0,0005.70,0000.76,0000.42
2024-03-04 16:55:00,SystemResetWarning,0823.1,4.99,000.00,019.0,018.4,000.0,027.3,020.6,13.0,0000.0,0005.68,0000.76,0000.42
2024-03-04 16:56:00,SystemResetWarning,0823.1,5.00,000.00,019.0,018.4,000.0,027.3,020.7,13.0,0000.0,0005.62,0000.78,0000.44
2024-03-04 16:57:00,SystemResetWarning,0823.1,5.00,000.00,019.0,018.4,000.0,027.3,020.7,12.9,0000.0,0005.66,0000.78,0000.44
2024-03-04 16:58:00,SystemResetWarning,0823.2,5.01,000.00,019.0,018.4,000.0,027.3,020.7,13.0,0000.0,0004.97,0000.80,0000.46
2024-03-04 16:59:00,SystemResetWarning,0823.2,5.00,000.00,019.0,018.4,000.0,027.3,020.7,12.8,0000.0,0005.17,0000.84,0000.47
